Flag for Italy Weather past 2 weeks in Palermo, Italy

Now
59 °F

Clear.


Feels Like: 57 °F
Forecast: 52 / 74 °F
Wind: 10 mph from South

Location: Palermo / Punta Raisi


UV Index: 0 (Low)

Visibility: 10 mi


Pressure: 29.98 "Hg

Humidity: 88%

Dew point: 55 °F

Location of PalermoLocation

Historic Weather in Palermo

°F

Palermo temperature yesterday

Maximum temperature yesterday: 63 °F (at 12:50 AM)
Minimum temperature yesterday: 61 °F (at 12:20 AM)
Average temperature yesterday: 61 °F

Past Weeks' High & Low Weather Summary

 TemperatureHumidityPressure
High73 °F (Apr 22, 5:50 PM)100% (Apr 10, 12:20 AM)30.12 "Hg (Apr 10, 12:20 AM)
Low48 °F (Apr 17, 3:50 AM)27% (Apr 20, 12:50 AM)29.59 "Hg (Apr 20, 9:50 PM)
Average60 °F73%29.93 "Hg
* Reported Apr 9 3:20 AM — Apr 24 3:50 AM, Palermo, Weather by CustomWeather, © 2014

Note: Actual official high and low records may vary slightly from our data, if they occured in-between our weather recording intervals... More about our weather records

Advertising

Historic Weather Conditions — Data for Previous 24 hours

 ConditionsComfort  
Time TempWeatherWind HumidityBarometerVisibility
3:50 AM
Apr 24
59 °FClear.10 mph88%30.01 "Hg10 mi
3:20 AM59 °FPassing clouds.10 mph94%30.01 "HgN/A
2:50 AM59 °FPassing clouds.10 mph94%30.01 "HgN/A
2:20 AM59 °FPassing clouds.8 mph94%30.01 "HgN/A
1:50 AM59 °FPassing clouds.7 mph94%30.01 "HgN/A
1:20 AM59 °FPassing clouds.7 mph94%30.01 "HgN/A
12:50 AM61 °FPartly cloudy.7 mph88%30.01 "HgN/A
12:20 AM61 °FPartly cloudy.8 mph94%30.01 "HgN/A
11:50 PM
Apr 23
61 °FPartly cloudy.12 mph94%30.01 "HgN/A
11:20 PM61 °FPartly cloudy.9 mph94%30.01 "HgN/A
10:50 PM61 °FPartly cloudy.12 mph94%30.01 "HgN/A
10:20 PM61 °FPartly cloudy.12 mph94%30.01 "HgN/A
9:50 PM61 °FPartly cloudy.12 mph94%30.01 "HgN/A
9:20 PM61 °FPartly cloudy.12 mph94%30.01 "HgN/A
8:50 PM61 °FPartly cloudy.14 mph94%29.98 "HgN/A
8:20 PM61 °FBroken clouds.10 mph94%29.98 "HgN/A
7:50 PM61 °FBroken clouds.13 mph94%29.95 "HgN/A
7:20 PM61 °FPartly sunny.15 mph94%29.95 "HgN/A
6:50 PM61 °FBroken clouds.15 mph94%29.95 "HgN/A
6:20 PM61 °FBroken clouds.15 mph94%29.95 "HgN/A
5:50 PM61 °FBroken clouds.12 mph94%29.95 "HgN/A
5:20 PM63 °FBroken clouds.12 mph88%29.92 "HgN/A
4:50 PM63 °FScattered clouds.9 mph94%29.92 "HgN/A
4:20 PM63 °FScattered clouds.14 mph94%29.92 "HgN/A
3:50 PM61 °FBroken clouds.15 mph100%29.92 "HgN/A
3:20 PM63 °FScattered clouds.13 mph94%29.92 "Hg5 mi
2:50 PM63 °FBroken clouds.13 mph94%29.92 "Hg4 mi
2:20 PM61 °FPartly sunny.16 mph100%29.92 "Hg5 mi
1:50 PM61 °FLight rain. Broken clouds.20 mph100%29.92 "Hg4 mi
1:20 PM61 °FRain. Mostly cloudy.18 mph100%29.89 "Hg4 mi
12:50 PM61 °FBroken clouds.15 mph100%29.89 "Hg5 mi
12:20 PM61 °FLight rain. Broken clouds.14 mph94%29.92 "Hg6 mi
11:50 AM61 °FScattered clouds.12 mph94%29.92 "HgN/A
11:20 AM61 °FBroken clouds.7 mph100%29.92 "HgN/A
10:50 AM61 °FBroken clouds.9 mph94%29.89 "Hg6 mi
10:20 AM61 °FLight rain. Broken clouds.14 mph94%29.89 "Hg4 mi
9:50 AM61 °FBroken clouds.12 mph100%29.89 "Hg6 mi
9:20 AM61 °FBroken clouds.12 mph94%29.89 "Hg6 mi
8:50 AM61 °FLight rain. Broken clouds.13 mph94%29.89 "Hg5 mi
8:20 AM61 °FLight rain. Broken clouds.9 mph100%29.89 "Hg4 mi
7:50 AM61 °FRain. Broken clouds.5 mph100%29.89 "Hg4 mi
7:20 AM61 °FRain. Partly cloudy.5 mph94%29.89 "Hg4 mi
6:50 AM61 °FRain. Partly cloudy.9 mph100%29.89 "Hg4 mi
6:20 AM61 °FRain. Partly cloudy.10 mph100%29.89 "Hg4 mi
5:50 AM61 °FRain. Partly cloudy.10 mph100%29.89 "Hg4 mi
5:20 AM61 °FHeavy rain. Partly cloudy.12 mph100%29.89 "Hg3 mi
Weather by CustomWeather, © 2014

See weather overview